Weather History for Wright-Patt AFB, OH

Change the Weather History Date:

Wednesday, December 12, 2012

  Actual Average Record
Temperature  
Mean Temperature 32 °F -  
Max Temperature 42 °F 40 °F 52 °F (2006)
Min Temperature 21 °F 26 °F 3 °F (2013)
Degree Days  
Heating Degree Days 34    
Moisture  
Dew Point 19 °F    
Average Humidity 67    
Maximum Humidity 87    
Minimum Humidity 36    
Precipitation  
Precipitation 0.00 in - - ()
Sea Level Pressure  
Sea Level Pressure 30.38 in    
Wind  
Wind Speed 3 mph (SE)    
Max Wind Speed 6 mph    
Max Gust Speed -    
Visibility 10 miles    
Events Fog    
Averages and records for this station are not official NWS values.
T = Trace of Precipitation, MM = Missing Value Source: NWS Daily Summary

Daily Weather History Graph

Daily Weather History Graph

Search for Another Location

Airport:

Trip Planner

Search our weather history database for the weather conditions in past years. The results will help you decide how hot, cold, wet, or windy it might be!

Date:

Astronomy

Dec. 12, 2012 Rise Set
Actual Time 7:48 AM EST 5:11 PM EST
Civil Twilight 7:18 AM EST 5:42 PM EST
Nautical Twilight 6:44 AM EST 6:16 PM EST
Astronomical Twilight 6:11 AM EST 6:48 PM EST
Moon 6:51 AM EST 4:47 PM EST
Length of Visible Light 10h 24m
Length of Day
9h 23m
Waning Crescent, 1% of the Moon is Illuminated
Dec 12
Waning Crescent
Dec 13
New
Dec 20
First Quarter
Dec 28
Full
Jan 4
Last Quarter

Hourly Weather History & Observations

Time (EST) Temp. Windchill Dew Point Humidity Pressure Visibility Wind Dir Wind Speed Gust Speed Precip Events Conditions
12:55 AM 24.3 °F 18.4 °F 18.1 °F 77% 30.28 in 10.0 mi South 4.6 mph - N/A   Clear
1:55 AM 24.1 °F - 18.5 °F 79% 30.30 in 10.0 mi Calm Calm - N/A   Clear
2:55 AM 23.2 °F 18.7 °F 18.0 °F 80% 30.31 in 10.0 mi ENE 3.5 mph - N/A   Clear
3:55 AM 22.3 °F 17.6 °F 17.6 °F 82% 30.32 in 10.0 mi SE 3.5 mph - N/A   Clear
4:55 AM 22.6 °F 15.3 °F 18.0 °F 82% 30.34 in 10.0 mi SE 5.8 mph - N/A   Clear
5:55 AM 21.7 °F - 17.4 °F 83% 30.36 in 10.0 mi Calm Calm - N/A   Clear
6:55 AM 22.1 °F - 17.8 °F 83% 30.38 in 10.0 mi Calm Calm - N/A   Clear
7:55 AM 21.2 °F - 17.8 °F 87% 30.39 in 10.0 mi Calm Calm - N/A Fog Shallow Fog
8:55 AM 23.9 °F - 19.9 °F 85% 30.41 in 10.0 mi Calm Calm - N/A   Clear
9:55 AM 28.8 °F 23.7 °F 22.3 °F 77% 30.42 in 10.0 mi SE 4.6 mph - N/A   Clear
10:55 AM 33.1 °F 30.0 °F 23.2 °F 67% 30.43 in 10.0 mi SSE 3.5 mph - N/A   Clear
11:55 AM 37.6 °F 33.1 °F 21.2 °F 52% 30.42 in 10.0 mi SSE 5.8 mph - N/A   Clear
12:55 PM 40.1 °F 38.0 °F 19.6 °F 44% 30.40 in 10.0 mi SSE 3.5 mph - N/A   Clear
1:55 PM 41.9 °F 40.0 °F 19.2 °F 40% 30.39 in 10.0 mi SSE 3.5 mph - N/A   Clear
2:55 PM 42.3 °F 40.5 °F 17.6 °F 37% 30.38 in 10.0 mi West 3.5 mph - N/A   Clear
3:55 PM 41.9 °F - 16.7 °F 36% 30.38 in 10.0 mi Calm Calm - N/A   Clear
4:55 PM 40.8 °F 38.8 °F 17.8 °F 40% 30.39 in 10.0 mi East 3.5 mph - N/A   Clear
5:55 PM 36.3 °F 32.5 °F 20.7 °F 53% 30.39 in 10.0 mi ESE 4.6 mph - N/A   Clear
6:55 PM 33.3 °F 30.2 °F 21.0 °F 61% 30.40 in 10.0 mi East 3.5 mph - N/A   Clear
7:55 PM 30.4 °F - 20.5 °F 67% 30.42 in 10.0 mi Calm Calm - N/A   Clear
8:55 PM 30.4 °F - 21.2 °F 69% 30.43 in 10.0 mi Calm Calm - N/A   Clear
9:55 PM 30.6 °F - 20.8 °F 67% 30.43 in 10.0 mi Calm Calm - N/A   Clear
10:55 PM 26.8 °F - 21.2 °F 79% 30.43 in 10.0 mi Calm Calm - N/A   Clear
11:55 PM 24.8 °F - 19.9 °F 82% 30.42 in 10.0 mi Calm Calm - N/A   Clear